NDF4MA LGKR-LCLK

Flight info

Callsign NDF4MA
Flight time 1h 50m
Altitude 23000
Route MALED1F MALED A14 MIL M601 EVENO/N0453F350 M601 DASNI DCT PHA PHA1C
Aircraft A321/M-SDE3FGHIRWY/LB1

Departure

Time 2026-05-07 08:29
Airport Corfu Ioannis Kapodistrias International Airport (LGKR)

Arrival

Time 2026-05-07 10:20
Airport Larnaca International Airport (LCLK)
Time Latitude Longitude Altitude Speed Heading
2026-05-07 08:07 39.60893 19.91298 10 ft 0 kts 78°
2026-05-07 08:18 39.60890 19.91282 9 ft 4 kts 80°
2026-05-07 08:18 39.60885 19.91248 9 ft 4 kts 82°
2026-05-07 08:18 39.60884 19.91213 9 ft 4 kts 95°
2026-05-07 08:19 39.60889 19.91180 9 ft 4 kts 121°
2026-05-07 08:19 39.60905 19.91162 9 ft 1 kts 169°
2026-05-07 08:19 39.60909 19.91160 9 ft 0 kts 169°
2026-05-07 08:21 39.60907 19.91161 9 ft 3 kts 169°
2026-05-07 08:21 39.60863 19.91172 9 ft 9 kts 169°
2026-05-07 08:22 39.60798 19.91189 9 ft 11 kts 169°
2026-05-07 08:22 39.60726 19.91207 9 ft 10 kts 169°
2026-05-07 08:22 39.60663 19.91220 9 ft 9 kts 178°
2026-05-07 08:22 39.60598 19.91201 10 ft 0 kts 200°
2026-05-07 08:23 39.60551 19.91178 8 ft 14 kts 201°
2026-05-07 08:23 39.60442 19.91152 8 ft 18 kts 173°
2026-05-07 08:24 39.60309 19.91184 10 ft 20 kts 168°
2026-05-07 08:24 39.60178 19.91218 11 ft 19 kts 169°
2026-05-07 08:24 39.60025 19.91256 10 ft 23 kts 169°
2026-05-07 08:24 39.59872 19.91295 11 ft 22 kts 169°
2026-05-07 08:25 39.59726 19.91332 8 ft 22 kts 169°
2026-05-07 08:25 39.59579 19.91369 6 ft 21 kts 169°
2026-05-07 08:25 39.59434 19.91405 5 ft 21 kts 169°
2026-05-07 08:25 39.59295 19.91440 5 ft 20 kts 169°
2026-05-07 08:26 39.59150 19.91453 6 ft 1 kts 137°
2026-05-07 08:26 39.59151 19.91487 6 ft 6 kts 60°
2026-05-07 08:26 39.59185 19.91485 6 ft 6 kts 333°
2026-05-07 08:27 39.59222 19.91463 6 ft 6 kts 346°
2026-05-07 08:27 39.59299 19.91444 5 ft 31 kts 349°
2026-05-07 08:27 39.59674 19.91351 7 ft 38 kts 349°
2026-05-07 08:27 39.59757 19.91330 9 ft 1 kts 349°
2026-05-07 08:28 39.59759 19.91330 9 ft 0 kts 349°
2026-05-07 08:28 39.60001 19.91265 10 ft 73 kts 348°
2026-05-07 08:28 39.60717 19.91081 10 ft 134 kts 348°
2026-05-07 08:29 39.61778 19.90842 175 ft 164 kts 353°
2026-05-07 08:29 39.62878 19.90675 811 ft 158 kts 351°
2026-05-07 08:29 39.63960 19.90403 1287 ft 159 kts 348°
2026-05-07 08:29 39.64943 19.89758 1700 ft 164 kts 317°
2026-05-07 08:30 39.65579 19.88449 1865 ft 184 kts 285°
2026-05-07 08:30 39.65547 19.86736 2014 ft 201 kts 253°
2026-05-07 08:30 39.65115 19.84926 2198 ft 218 kts 252°
2026-05-07 08:30 39.64678 19.83019 2688 ft 223 kts 259°
2026-05-07 08:31 39.64736 19.81018 3304 ft 225 kts 288°
2026-05-07 08:31 39.65412 19.79124 3689 ft 240 kts 297°
2026-05-07 08:31 39.66213 19.77176 4254 ft 247 kts 298°
2026-05-07 08:31 39.67040 19.75206 4932 ft 250 kts 298°
2026-05-07 08:32 39.67876 19.73218 5622 ft 252 kts 298°
2026-05-07 08:32 39.68714 19.71209 6304 ft 254 kts 298°
2026-05-07 08:32 39.69553 19.69182 6977 ft 256 kts 298°
2026-05-07 08:32 39.70463 19.67180 7629 ft 259 kts 310°
2026-05-07 08:33 39.71889 19.65760 8247 ft 262 kts 338°
2026-05-07 08:33 39.73676 19.65324 8858 ft 265 kts
2026-05-07 08:33 39.75442 19.65979 9456 ft 268 kts 31°
2026-05-07 08:33 39.76807 19.67615 10025 ft 272 kts 58°
2026-05-07 08:34 39.77452 19.69917 10565 ft 276 kts 86°
2026-05-07 08:34 39.77197 19.72379 11096 ft 279 kts 114°
2026-05-07 08:34 39.76083 19.74424 11631 ft 280 kts 140°
2026-05-07 08:34 39.74579 19.76057 12196 ft 283 kts 142°
2026-05-07 08:35 39.73057 19.77674 12838 ft 283 kts 142°
2026-05-07 08:35 39.71529 19.79295 13429 ft 284 kts 142°
2026-05-07 08:35 39.69994 19.80931 14022 ft 286 kts 142°
2026-05-07 08:35 39.68449 19.82578 14586 ft 288 kts 142°
2026-05-07 08:36 39.66895 19.84237 15124 ft 290 kts 142°
2026-05-07 08:36 39.65332 19.85909 15682 ft 292 kts 142°
2026-05-07 08:36 39.63759 19.87595 16201 ft 295 kts 142°
2026-05-07 08:36 39.62174 19.89294 16718 ft 296 kts 142°
2026-05-07 08:37 39.60578 19.91000 17231 ft 298 kts 142°
2026-05-07 08:37 39.58925 19.92719 17449 ft 313 kts 143°
2026-05-07 08:37 39.57164 19.94494 17582 ft 328 kts 144°
2026-05-07 08:37 39.55311 19.96337 17712 ft 343 kts 144°
2026-05-07 08:38 39.53372 19.98258 17840 ft 358 kts 144°
2026-05-07 08:38 39.51388 20.00235 17963 ft 372 kts 143°
2026-05-07 08:38 39.49303 20.02322 18088 ft 385 kts 143°
2026-05-07 08:38 39.47121 20.04508 18216 ft 398 kts 143°
2026-05-07 08:39 39.44905 20.06734 18343 ft 409 kts 143°
2026-05-07 08:39 39.42633 20.09031 18471 ft 420 kts 143°
2026-05-07 08:39 39.40328 20.11405 18691 ft 427 kts 142°
2026-05-07 08:39 39.38008 20.13823 19054 ft 430 kts 142°
2026-05-07 08:40 39.35677 20.16264 19448 ft 433 kts 142°
2026-05-07 08:40 39.33330 20.18717 19846 ft 435 kts 142°
2026-05-07 08:40 39.30961 20.21179 20223 ft 438 kts 142°
2026-05-07 08:40 39.28577 20.23643 20589 ft 440 kts 142°
2026-05-07 08:41 39.26180 20.26117 20949 ft 442 kts 142°
2026-05-07 08:41 39.23770 20.28601 21301 ft 445 kts 143°
2026-05-07 08:41 39.21344 20.31093 21643 ft 447 kts 143°
2026-05-07 08:41 39.18904 20.33597 21978 ft 449 kts 143°
2026-05-07 08:42 39.16456 20.36114 22303 ft 452 kts 142°
2026-05-07 08:42 39.13997 20.38649 22625 ft 454 kts 142°
2026-05-07 08:42 39.11525 20.41197 22941 ft 456 kts 142°
2026-05-07 08:42 39.09043 20.43751 23249 ft 458 kts 142°
2026-05-07 08:43 39.06546 20.46314 23559 ft 460 kts 143°
2026-05-07 08:43 39.04033 20.48880 23851 ft 462 kts 143°
2026-05-07 08:43 39.01529 20.51402 24118 ft 465 kts 143°
2026-05-07 08:43 38.98963 20.53959 24341 ft 468 kts 143°
2026-05-07 08:44 38.96380 20.56521 24607 ft 470 kts 143°
2026-05-07 08:44 38.93783 20.59093 24883 ft 472 kts 143°
2026-05-07 08:44 38.91176 20.61679 25156 ft 475 kts 143°
2026-05-07 08:44 38.88559 20.64277 25428 ft 477 kts 143°
2026-05-07 08:45 38.85934 20.66890 25687 ft 478 kts 143°
2026-05-07 08:45 38.83320 20.69543 25970 ft 479 kts 142°
2026-05-07 08:45 38.80724 20.72224 26333 ft 479 kts 142°
2026-05-07 08:45 38.78142 20.74913 26669 ft 478 kts 142°
2026-05-07 08:46 38.75564 20.77596 27008 ft 477 kts 142°
2026-05-07 08:46 38.72981 20.80269 27342 ft 477 kts 142°
2026-05-07 08:46 38.70396 20.82927 27670 ft 476 kts 142°
2026-05-07 08:46 38.67809 20.85574 27990 ft 476 kts 143°
2026-05-07 08:47 38.65223 20.88213 28312 ft 475 kts 143°
2026-05-07 08:47 38.62639 20.90844 28618 ft 475 kts 143°
2026-05-07 08:47 38.60054 20.93475 28921 ft 474 kts 143°
2026-05-07 08:47 38.57499 20.96139 29215 ft 474 kts 141°
2026-05-07 08:48 38.55001 20.98892 29503 ft 474 kts 140°
2026-05-07 08:48 38.52546 21.01701 29786 ft 474 kts 139°
2026-05-07 08:48 38.50109 21.04538 30071 ft 473 kts 139°
2026-05-07 08:48 38.47674 21.07366 30357 ft 473 kts 139°
2026-05-07 08:49 38.45232 21.10166 30638 ft 472 kts 139°
2026-05-07 08:49 38.42807 21.12909 30912 ft 472 kts 140°
2026-05-07 08:49 38.40342 21.15669 31183 ft 471 kts 140°
2026-05-07 08:49 38.37879 21.18418 31452 ft 471 kts 140°
2026-05-07 08:50 38.35412 21.21170 31708 ft 471 kts 140°
2026-05-07 08:50 38.32941 21.23929 31880 ft 474 kts 141°
2026-05-07 08:50 38.30454 21.26705 32005 ft 477 kts 141°
2026-05-07 08:50 38.27952 21.29498 32164 ft 479 kts 141°
2026-05-07 08:51 38.25445 21.32297 32383 ft 480 kts 141°
2026-05-07 08:51 38.22938 21.35096 32624 ft 480 kts 141°
2026-05-07 08:51 38.20429 21.37898 32871 ft 480 kts 141°
2026-05-07 08:51 38.17921 21.40693 33118 ft 479 kts 141°
2026-05-07 08:52 38.15415 21.43486 33362 ft 479 kts 141°
2026-05-07 08:52 38.12950 21.46338 33598 ft 480 kts 140°
2026-05-07 08:52 38.10535 21.49263 33833 ft 480 kts 139°
2026-05-07 08:52 38.08156 21.52231 34065 ft 480 kts 138°
2026-05-07 08:53 38.05788 21.55210 34299 ft 479 kts 138°
2026-05-07 08:53 38.03416 21.58173 34547 ft 478 kts 138°
2026-05-07 08:53 38.01038 21.61114 34783 ft 477 kts 139°
2026-05-07 08:53 37.98649 21.64034 34977 ft 477 kts 139°
2026-05-07 08:54 37.93853 21.69838 35033 ft 476 kts 139°
2026-05-07 08:54 37.89088 21.75581 35032 ft 476 kts 139°
2026-05-07 08:55 37.84299 21.81372 35034 ft 476 kts 139°
2026-05-07 08:55 37.79515 21.87161 35033 ft 476 kts 139°
2026-05-07 08:56 37.74725 21.92931 35032 ft 476 kts 139°
2026-05-07 08:56 37.69932 21.98690 35033 ft 476 kts 139°
2026-05-07 08:57 37.65947 22.03483 35033 ft 476 kts 139°
2026-05-07 08:57 37.61150 22.09239 35036 ft 476 kts 139°
2026-05-07 08:58 37.56346 22.14992 35035 ft 476 kts 139°
2026-05-07 08:58 37.51544 22.20732 35035 ft 476 kts 139°
2026-05-07 08:59 37.46731 22.26461 35036 ft 476 kts 139°
2026-05-07 08:59 37.42057 22.32375 35038 ft 479 kts 130°
2026-05-07 09:00 37.38741 22.39662 35035 ft 484 kts 112°
2026-05-07 09:00 37.36440 22.47634 35037 ft 485 kts 111°
2026-05-07 09:01 37.34121 22.55602 35041 ft 485 kts 112°
2026-05-07 09:01 37.31794 22.63560 35046 ft 485 kts 112°
2026-05-07 09:02 37.29467 22.71505 35048 ft 484 kts 112°
2026-05-07 09:02 37.27137 22.79433 35045 ft 483 kts 112°
2026-05-07 09:03 37.24807 22.87344 35042 ft 483 kts 112°
2026-05-07 09:03 37.22474 22.95252 35042 ft 483 kts 112°
2026-05-07 09:04 37.20133 23.03156 35042 ft 483 kts 112°
2026-05-07 09:04 37.17788 23.11046 35042 ft 483 kts 112°
2026-05-07 09:05 37.15435 23.18929 35042 ft 483 kts 112°
2026-05-07 09:05 37.13077 23.26808 35038 ft 483 kts 112°
2026-05-07 09:06 37.10718 23.34678 35037 ft 482 kts 112°
2026-05-07 09:06 37.08369 23.42494 35036 ft 483 kts 112°
2026-05-07 09:07 37.05992 23.50354 35036 ft 483 kts 112°
2026-05-07 09:07 37.03613 23.58208 35037 ft 483 kts 112°
2026-05-07 09:08 37.01234 23.66062 35035 ft 482 kts 112°
2026-05-07 09:08 36.98846 23.73906 35037 ft 483 kts 112°
2026-05-07 09:09 36.96452 23.81745 35036 ft 483 kts 112°
2026-05-07 09:09 36.94060 23.89582 35036 ft 482 kts 112°
2026-05-07 09:10 36.91651 23.97414 35035 ft 483 kts 112°
2026-05-07 09:10 36.89235 24.05238 35037 ft 483 kts 112°
2026-05-07 09:11 36.86828 24.13064 35037 ft 483 kts 112°
2026-05-07 09:11 36.84416 24.20883 35038 ft 483 kts 113°
2026-05-07 09:12 36.81989 24.28698 35032 ft 483 kts 112°
2026-05-07 09:12 36.79566 24.36517 35027 ft 484 kts 112°
2026-05-07 09:13 36.77137 24.44300 35032 ft 485 kts 112°
2026-05-07 09:13 36.74875 24.52230 35036 ft 487 kts 103°
2026-05-07 09:14 36.73894 24.60586 35039 ft 488 kts 97°
2026-05-07 09:14 36.73062 24.68975 35043 ft 488 kts 97°
2026-05-07 09:15 36.72220 24.77378 35051 ft 489 kts 97°
2026-05-07 09:15 36.71364 24.85779 35055 ft 489 kts 97°
2026-05-07 09:16 36.70502 24.94182 35060 ft 489 kts 97°
2026-05-07 09:16 36.69640 25.02585 35061 ft 489 kts 97°
2026-05-07 09:17 36.68771 25.10981 35060 ft 489 kts 98°
2026-05-07 09:17 36.67887 25.19375 35061 ft 488 kts 98°
2026-05-07 09:18 36.66885 25.27744 35057 ft 488 kts 99°
2026-05-07 09:18 36.65789 25.36092 35061 ft 488 kts 99°
2026-05-07 09:19 36.64741 25.44448 35056 ft 488 kts 98°
2026-05-07 09:19 36.63903 25.52836 35058 ft 488 kts 97°
2026-05-07 09:20 36.63121 25.61234 35058 ft 488 kts 97°
2026-05-07 09:20 36.62283 25.69626 35059 ft 489 kts 97°
2026-05-07 09:21 36.61399 25.77957 35056 ft 489 kts 98°
2026-05-07 09:21 36.60501 25.86341 35062 ft 489 kts 98°
2026-05-07 09:22 36.59601 25.94785 35060 ft 489 kts 98°
2026-05-07 09:22 36.58702 26.03173 35066 ft 489 kts 98°
2026-05-07 09:23 36.57807 26.11507 35067 ft 489 kts 97°
2026-05-07 09:23 36.56901 26.19892 35063 ft 489 kts 97°
2026-05-07 09:24 36.55983 26.28274 35062 ft 489 kts 98°
2026-05-07 09:24 36.55024 26.36648 35062 ft 489 kts 98°
2026-05-07 09:25 36.54046 26.45010 35059 ft 489 kts 98°
2026-05-07 09:25 36.53068 26.53366 35057 ft 488 kts 98°
2026-05-07 09:26 36.52097 26.61724 35056 ft 488 kts 98°
2026-05-07 09:26 36.51120 26.70077 35055 ft 488 kts 98°
2026-05-07 09:27 36.50136 26.78431 35054 ft 488 kts 98°
2026-05-07 09:28 36.48636 26.90949 35052 ft 488 kts 98°
2026-05-07 09:28 36.47626 26.99291 35052 ft 488 kts 98°
2026-05-07 09:29 36.46607 27.07633 35052 ft 488 kts 98°
2026-05-07 09:29 36.45593 27.15972 35049 ft 488 kts 98°
2026-05-07 09:30 36.44579 27.24311 35051 ft 488 kts 98°
2026-05-07 09:30 36.43557 27.32641 35050 ft 488 kts 98°
2026-05-07 09:31 36.42530 27.40970 35049 ft 487 kts 98°
2026-05-07 09:31 36.41502 27.49287 35044 ft 487 kts 98°
2026-05-07 09:32 36.40473 27.57547 35042 ft 487 kts 99°
2026-05-07 09:32 36.39419 27.65859 35041 ft 488 kts 99°
2026-05-07 09:33 36.38365 27.74170 35043 ft 488 kts 99°
2026-05-07 09:33 36.37305 27.82488 35044 ft 488 kts 99°
2026-05-07 09:34 36.36246 27.90802 35044 ft 488 kts 99°
2026-05-07 09:34 36.35175 27.99111 35041 ft 488 kts 98°
2026-05-07 09:35 36.34061 28.07424 35034 ft 489 kts 102°
2026-05-07 09:35 36.32125 28.15491 35031 ft 489 kts 108°
2026-05-07 09:36 36.30076 28.23525 35030 ft 489 kts 108°
2026-05-07 09:36 36.28024 28.31555 35030 ft 489 kts 108°
2026-05-07 09:37 36.25962 28.39584 35031 ft 489 kts 108°
2026-05-07 09:37 36.23895 28.47605 35035 ft 489 kts 108°
2026-05-07 09:38 36.21812 28.55627 35035 ft 489 kts 108°
2026-05-07 09:38 36.19721 28.63648 35038 ft 490 kts 108°
2026-05-07 09:39 36.17635 28.71676 35041 ft 490 kts 108°
2026-05-07 09:39 36.15535 28.79696 35045 ft 490 kts 108°
2026-05-07 09:40 36.13440 28.87662 35047 ft 490 kts 108°
2026-05-07 09:40 36.11309 28.95731 35050 ft 490 kts 108°
2026-05-07 09:41 36.09210 29.03692 35049 ft 490 kts 108°
2026-05-07 09:41 36.07088 29.11697 35050 ft 490 kts 108°
2026-05-07 09:42 36.04956 29.19699 35049 ft 490 kts 108°
2026-05-07 09:42 36.02823 29.27698 35052 ft 490 kts 108°
2026-05-07 09:43 36.00687 29.35698 35051 ft 490 kts 108°
2026-05-07 09:43 35.98544 29.43690 35053 ft 490 kts 108°
2026-05-07 09:44 35.96389 29.51682 35052 ft 490 kts 108°
2026-05-07 09:44 35.94236 29.59664 35051 ft 490 kts 108°
2026-05-07 09:45 35.92094 29.67649 35052 ft 490 kts 108°
2026-05-07 09:45 35.89949 29.75634 35058 ft 490 kts 108°
2026-05-07 09:46 35.87787 29.83612 35060 ft 490 kts 108°
2026-05-07 09:46 35.85990 29.90236 35070 ft 490 kts 108°
2026-05-07 09:47 35.83822 29.98196 35071 ft 490 kts 108°
2026-05-07 09:47 35.81709 30.06172 35069 ft 489 kts 107°
2026-05-07 09:48 35.79721 30.14185 35064 ft 489 kts 107°
2026-05-07 09:48 35.77748 30.22208 35065 ft 490 kts 107°
2026-05-07 09:49 35.75745 30.30167 35068 ft 490 kts 107°
2026-05-07 09:49 35.73698 30.38162 35068 ft 490 kts 107°
2026-05-07 09:50 35.71651 30.46150 35072 ft 489 kts 107°
2026-05-07 09:50 35.69611 30.54133 35066 ft 489 kts 107°
2026-05-07 09:51 35.67571 30.62117 35061 ft 489 kts 107°
2026-05-07 09:51 35.65524 30.70093 35058 ft 489 kts 107°
2026-05-07 09:52 35.63466 30.78056 35059 ft 489 kts 108°
2026-05-07 09:52 35.61069 30.85858 35061 ft 488 kts 119°
2026-05-07 09:53 35.57439 30.92899 35059 ft 488 kts 124°
2026-05-07 09:53 35.53711 30.99862 35062 ft 488 kts 124°
2026-05-07 09:54 35.49982 31.06826 35062 ft 488 kts 124°
2026-05-07 09:54 35.46251 31.13783 35063 ft 488 kts 124°
2026-05-07 09:55 35.42507 31.20727 35063 ft 488 kts 124°
2026-05-07 09:55 35.38753 31.27661 35059 ft 488 kts 124°
2026-05-07 09:56 35.35014 31.34580 35061 ft 488 kts 124°
2026-05-07 09:56 35.31264 31.41511 35056 ft 488 kts 124°
2026-05-07 09:57 35.27504 31.48445 35054 ft 489 kts 124°
2026-05-07 09:57 35.23728 31.55390 35055 ft 491 kts 124°
2026-05-07 09:58 35.19935 31.62335 35061 ft 491 kts 124°
2026-05-07 09:58 35.16133 31.69282 35067 ft 492 kts 124°
2026-05-07 09:59 35.12334 31.76237 35072 ft 492 kts 124°
2026-05-07 09:59 35.08557 31.83134 35069 ft 492 kts 124°
2026-05-07 10:00 35.04719 31.90114 35074 ft 492 kts 124°
2026-05-07 10:00 35.00921 31.96998 35030 ft 493 kts 124°
2026-05-07 10:00 34.99008 32.00461 34771 ft 492 kts 124°
2026-05-07 10:01 34.97097 32.03921 34428 ft 492 kts 124°
2026-05-07 10:01 34.95169 32.07414 33381 ft 501 kts 124°
2026-05-07 10:01 34.93219 32.10948 32460 ft 505 kts 124°
2026-05-07 10:01 34.91248 32.14515 31432 ft 510 kts 124°
2026-05-07 10:02 34.89266 32.18101 30509 ft 511 kts 124°
2026-05-07 10:02 34.87273 32.21704 29595 ft 512 kts 124°
2026-05-07 10:02 34.85292 32.25275 28480 ft 507 kts 124°
2026-05-07 10:02 34.83309 32.28839 27128 ft 508 kts 124°
2026-05-07 10:03 34.81336 32.32381 25954 ft 503 kts 124°
2026-05-07 10:03 34.79377 32.35898 24734 ft 500 kts 124°
2026-05-07 10:03 34.77435 32.39382 23652 ft 497 kts 124°
2026-05-07 10:03 34.75495 32.42865 22764 ft 496 kts 123°
2026-05-07 10:04 34.73839 32.46519 21929 ft 492 kts 113°
2026-05-07 10:04 34.72772 32.50437 21240 ft 484 kts 102°
2026-05-07 10:04 34.72301 32.54474 20434 ft 479 kts 91°
2026-05-07 10:04 34.72415 32.58481 19588 ft 474 kts 81°
2026-05-07 10:05 34.72999 32.62385 19019 ft 465 kts 77°
2026-05-07 10:05 34.73595 32.66220 18304 ft 460 kts 78°
2026-05-07 10:05 34.74165 32.70020 17606 ft 454 kts 79°
2026-05-07 10:05 34.74712 32.73777 16966 ft 448 kts 79°
2026-05-07 10:06 34.75237 32.77491 16289 ft 443 kts 79°
2026-05-07 10:06 34.75749 32.81164 15594 ft 439 kts 79°
2026-05-07 10:06 34.76257 32.84806 14843 ft 435 kts 79°
2026-05-07 10:06 34.76764 32.88405 14234 ft 429 kts 79°
2026-05-07 10:07 34.77269 32.91955 13623 ft 423 kts 79°
2026-05-07 10:07 34.77765 32.95445 13064 ft 415 kts 79°
2026-05-07 10:07 34.78245 32.98834 12512 ft 409 kts 79°
2026-05-07 10:07 34.78731 33.02261 11943 ft 402 kts 79°
2026-05-07 10:08 34.79197 33.05545 11462 ft 395 kts 80°
2026-05-07 10:08 34.79657 33.08769 11329 ft 379 kts 80°
2026-05-07 10:08 34.80101 33.11861 11198 ft 364 kts 80°
2026-05-07 10:08 34.80532 33.14836 11074 ft 350 kts 79°
2026-05-07 10:09 34.80947 33.17699 10948 ft 337 kts 80°
2026-05-07 10:09 34.81345 33.20462 10822 ft 325 kts 80°
2026-05-07 10:09 34.81726 33.23121 10696 ft 314 kts 80°
2026-05-07 10:09 34.82090 33.25691 10535 ft 304 kts 80°
2026-05-07 10:10 34.82444 33.28204 10319 ft 297 kts 80°
2026-05-07 10:10 34.82798 33.30713 10230 ft 297 kts 80°
2026-05-07 10:10 34.83143 33.33146 10107 ft 294 kts 80°
2026-05-07 10:10 34.83492 33.35598 9823 ft 295 kts 80°
2026-05-07 10:11 34.83844 33.38064 9420 ft 294 kts 79°
2026-05-07 10:11 34.84195 33.40530 8949 ft 296 kts 79°
2026-05-07 10:11 34.84542 33.42979 8617 ft 292 kts 80°
2026-05-07 10:11 34.84882 33.45396 8176 ft 288 kts 80°
2026-05-07 10:12 34.85217 33.47790 7620 ft 286 kts 80°
2026-05-07 10:12 34.85551 33.50164 7074 ft 283 kts 80°
2026-05-07 10:12 34.85886 33.52520 6617 ft 283 kts 80°
2026-05-07 10:12 34.86224 33.54915 6183 ft 283 kts 80°
2026-05-07 10:13 34.86551 33.57263 5822 ft 280 kts 80°
2026-05-07 10:13 34.86875 33.59605 5428 ft 279 kts 80°
2026-05-07 10:13 34.87204 33.61932 5015 ft 278 kts 78°
2026-05-07 10:13 34.87811 33.64159 4585 ft 278 kts 67°
2026-05-07 10:14 34.88544 33.66313 4203 ft 276 kts 67°
2026-05-07 10:14 34.89269 33.68437 3847 ft 273 kts 67°
2026-05-07 10:14 34.89988 33.70554 3567 ft 267 kts 67°
2026-05-07 10:14 34.90683 33.72608 3433 ft 257 kts 67°
2026-05-07 10:15 34.91349 33.74578 3313 ft 246 kts 68°
2026-05-07 10:15 34.91989 33.76473 3205 ft 239 kts 68°
2026-05-07 10:15 34.92699 33.78296 3100 ft 238 kts 52°
2026-05-07 10:15 34.93996 33.79474 2918 ft 235 kts 17°
2026-05-07 10:16 34.95600 33.79552 2756 ft 233 kts 342°
2026-05-07 10:16 34.96961 33.78533 2587 ft 232 kts 309°
2026-05-07 10:16 34.97623 33.76778 2469 ft 231 kts 275°
2026-05-07 10:16 34.97375 33.74872 2323 ft 231 kts 241°
2026-05-07 10:17 34.96367 33.73357 2081 ft 231 kts 225°
2026-05-07 10:17 34.95229 33.71994 1839 ft 226 kts 224°
2026-05-07 10:17 34.94137 33.70672 1543 ft 214 kts 225°
2026-05-07 10:17 34.93130 33.69440 1301 ft 196 kts 225°
2026-05-07 10:18 34.92222 33.68328 1078 ft 175 kts 225°
2026-05-07 10:18 34.91405 33.67327 871 ft 158 kts 225°
2026-05-07 10:18 34.90652 33.66405 676 ft 150 kts 224°
2026-05-07 10:18 34.89923 33.65512 488 ft 147 kts 224°
2026-05-07 10:19 34.89204 33.64632 320 ft 146 kts 224°
2026-05-07 10:19 34.88489 33.63758 134 ft 146 kts 224°
2026-05-07 10:19 34.87786 33.62899 28 ft 136 kts 224°
2026-05-07 10:19 34.87249 33.62254 21 ft 68 kts 226°
2026-05-07 10:20 34.87044 33.61983 21 ft 36 kts 232°
2026-05-07 10:20 34.86957 33.61740 21 ft 14 kts 256°
2026-05-07 10:20 34.86956 33.61734 21 ft 0 kts 257°
2026-05-07 10:21 34.86941 33.61661 21 ft 18 kts 256°
2026-05-07 10:21 34.86908 33.61502 20 ft 19 kts 253°
2026-05-07 10:21 34.86898 33.61364 17 ft 15 kts 299°
2026-05-07 10:22 34.86965 33.61281 20 ft 12 kts 316°
2026-05-07 10:22 34.87024 33.61213 20 ft 11 kts 316°
2026-05-07 10:22 34.87049 33.61172 20 ft 1 kts 288°
2026-05-07 10:22 34.87043 33.61139 21 ft 6 kts 238°
2026-05-07 10:23 34.87011 33.61122 20 ft 5 kts 191°
2026-05-07 10:23 34.86996 33.61108 20 ft 0 kts 224°